NWA8091 KTUS-KPHX

Flight info

Callsign NWA8091
Flight time 0h 29m
Altitude 20000
Route TUS9 TUS V105 PXR
Aircraft B736/M-SDE2E3FGHIRWXY/LB1

Departure

Time 2026-04-25 15:08
Airport Tucson International Airport (KTUS)

Arrival

Time 2026-04-25 15:37
Airport Phoenix Sky Harbor International Airport (KPHX)
Time Latitude Longitude Altitude Speed Heading
2026-04-25 14:47 32.11888 -110.93766 2602 ft 0 kts 59°
2026-04-25 14:59 32.11885 -110.93772 2602 ft 2 kts 59°
2026-04-25 15:00 32.11877 -110.93787 2602 ft 2 kts 60°
2026-04-25 15:00 32.11870 -110.93802 2602 ft 2 kts 60°
2026-04-25 15:00 32.11862 -110.93816 2602 ft 2 kts 35°
2026-04-25 15:00 32.11849 -110.93823 2602 ft 2 kts 11°
2026-04-25 15:01 32.11834 -110.93822 2601 ft 2 kts 328°
2026-04-25 15:01 32.11829 -110.93818 2601 ft 0 kts 320°
2026-04-25 15:03 32.11832 -110.93821 2601 ft 2 kts 320°
2026-04-25 15:03 32.11866 -110.93858 2600 ft 10 kts 316°
2026-04-25 15:04 32.11894 -110.93938 2603 ft 12 kts 249°
2026-04-25 15:04 32.11891 -110.94024 2604 ft 12 kts 314°
2026-04-25 15:04 32.11955 -110.94100 2604 ft 15 kts 316°
2026-04-25 15:04 32.12030 -110.94186 2607 ft 15 kts 315°
2026-04-25 15:05 32.12110 -110.94280 2607 ft 18 kts 315°
2026-04-25 15:05 32.12203 -110.94391 2606 ft 19 kts 315°
2026-04-25 15:05 32.12296 -110.94499 2605 ft 19 kts 315°
2026-04-25 15:06 32.12403 -110.94699 2603 ft 13 kts 233°
2026-04-25 15:06 32.12334 -110.94759 2603 ft 12 kts 185°
2026-04-25 15:06 32.12286 -110.94727 2604 ft 0 kts 135°
2026-04-25 15:07 32.12268 -110.94706 2604 ft 13 kts 135°
2026-04-25 15:07 32.12031 -110.94429 2608 ft 85 kts 135°
2026-04-25 15:07 32.11459 -110.93758 2606 ft 144 kts 135°
2026-04-25 15:07 32.10693 -110.92874 3131 ft 153 kts 136°
2026-04-25 15:08 32.09930 -110.91999 3935 ft 153 kts 135°
2026-04-25 15:08 32.09168 -110.91067 4416 ft 167 kts 135°
2026-04-25 15:08 32.08317 -110.89960 4771 ft 194 kts 136°
2026-04-25 15:08 32.07392 -110.88727 5312 ft 208 kts 136°
2026-04-25 15:09 32.06376 -110.87351 5653 ft 240 kts 136°
2026-04-25 15:09 32.05192 -110.85766 5995 ft 270 kts 135°
2026-04-25 15:09 32.02486 -110.82523 7605 ft 278 kts 157°
2026-04-25 15:10 32.00635 -110.82092 8510 ft 273 kts 191°
2026-04-25 15:10 31.98901 -110.82895 9538 ft 270 kts 217°
2026-04-25 15:10 31.96688 -110.86558 10774 ft 304 kts 256°
2026-04-25 15:11 31.96575 -110.89104 11474 ft 319 kts 276°
2026-04-25 15:11 31.97350 -110.91558 12523 ft 327 kts 300°
2026-04-25 15:11 31.98846 -110.93564 13592 ft 334 kts 312°
2026-04-25 15:12 32.02477 -110.97196 15439 ft 345 kts 315°
2026-04-25 15:12 32.04309 -110.98994 16341 ft 349 kts 314°
2026-04-25 15:12 32.06162 -111.00858 17275 ft 352 kts 314°
2026-04-25 15:12 32.06788 -111.01498 17587 ft 353 kts 313°
2026-04-25 15:13 32.09872 -111.04700 19147 ft 354 kts 312°
2026-04-25 15:13 32.13555 -111.08580 19921 ft 354 kts 312°
2026-04-25 15:13 32.15393 -111.10527 19949 ft 360 kts 311°
2026-04-25 15:14 32.17306 -111.12563 19953 ft 379 kts 312°
2026-04-25 15:14 32.19286 -111.14664 19948 ft 384 kts 312°
2026-04-25 15:14 32.21272 -111.16766 19946 ft 383 kts 311°
2026-04-25 15:14 32.23083 -111.19025 19933 ft 376 kts 303°
2026-04-25 15:15 32.24534 -111.21559 19926 ft 370 kts 295°
2026-04-25 15:15 32.25776 -111.24214 19923 ft 369 kts 294°
2026-04-25 15:15 32.27007 -111.26874 19910 ft 369 kts 294°
2026-04-25 15:15 32.28247 -111.29538 19902 ft 370 kts 294°
2026-04-25 15:16 32.29491 -111.32189 19891 ft 370 kts 294°
2026-04-25 15:16 32.30745 -111.34846 19883 ft 370 kts 294°
2026-04-25 15:16 32.33289 -111.40162 19866 ft 372 kts 296°
2026-04-25 15:17 32.36103 -111.45322 19909 ft 374 kts 298°
2026-04-25 15:17 32.37592 -111.47857 19906 ft 377 kts 303°
2026-04-25 15:17 32.39379 -111.50143 19914 ft 382 kts 311°
2026-04-25 15:18 32.41475 -111.52118 19921 ft 388 kts 319°
2026-04-25 15:18 32.45949 -111.55718 19894 ft 389 kts 319°
2026-04-25 15:18 32.48181 -111.57524 19830 ft 388 kts 319°
2026-04-25 15:19 32.50398 -111.59333 19832 ft 387 kts 319°
2026-04-25 15:19 32.51146 -111.59947 19837 ft 387 kts 319°
2026-04-25 15:19 32.54824 -111.62968 19840 ft 387 kts 319°
2026-04-25 15:19 32.57033 -111.64787 19851 ft 387 kts 319°
2026-04-25 15:20 32.58497 -111.65993 19847 ft 387 kts 319°
2026-04-25 15:20 32.61460 -111.68435 19854 ft 387 kts 319°
2026-04-25 15:20 32.63673 -111.70260 19859 ft 388 kts 319°
2026-04-25 15:20 32.65889 -111.72089 19868 ft 388 kts 319°
2026-04-25 15:21 32.68104 -111.73918 19870 ft 384 kts 319°
2026-04-25 15:21 32.70269 -111.75701 19508 ft 376 kts 319°
2026-04-25 15:21 32.72401 -111.77461 19083 ft 368 kts 319°
2026-04-25 15:21 32.74476 -111.79177 18662 ft 360 kts 319°
2026-04-25 15:22 32.76524 -111.80874 18273 ft 358 kts 319°
2026-04-25 15:22 32.78555 -111.82560 17836 ft 356 kts 319°
2026-04-25 15:22 32.80581 -111.84241 17372 ft 354 kts 319°
2026-04-25 15:22 32.82628 -111.85872 16910 ft 357 kts 325°
2026-04-25 15:23 32.84902 -111.87097 16474 ft 360 kts 332°
2026-04-25 15:23 32.87231 -111.88179 16026 ft 359 kts 333°
2026-04-25 15:23 32.89563 -111.89235 15591 ft 358 kts 333°
2026-04-25 15:23 32.91887 -111.90287 15150 ft 356 kts 334°
2026-04-25 15:24 32.94189 -111.91329 14720 ft 351 kts 334°
2026-04-25 15:24 32.96423 -111.92342 14293 ft 346 kts 334°
2026-04-25 15:24 32.98683 -111.93372 13871 ft 342 kts 334°
2026-04-25 15:24 32.99404 -111.93702 13736 ft 341 kts 334°
2026-04-25 15:25 33.02989 -111.95574 12969 ft 335 kts 327°
2026-04-25 15:25 33.05033 -111.96886 12481 ft 332 kts 326°
2026-04-25 15:25 33.07043 -111.98210 12077 ft 326 kts 326°
2026-04-25 15:25 33.09003 -111.99507 11730 ft 319 kts 326°
2026-04-25 15:26 33.10924 -112.00783 11384 ft 312 kts 326°
2026-04-25 15:26 33.12799 -112.02033 11091 ft 305 kts 326°
2026-04-25 15:26 33.14633 -112.03257 10791 ft 299 kts 326°
2026-04-25 15:26 33.16432 -112.04458 10488 ft 294 kts 326°
2026-04-25 15:27 33.18202 -112.05642 10214 ft 289 kts 326°
2026-04-25 15:27 33.19936 -112.06803 9945 ft 283 kts 325°
2026-04-25 15:27 33.22909 -112.09653 9356 ft 271 kts 314°
2026-04-25 15:28 33.24329 -112.11147 9052 ft 272 kts 314°
2026-04-25 15:28 33.25731 -112.12627 8734 ft 264 kts 314°
2026-04-25 15:28 33.27081 -112.14055 8410 ft 254 kts 314°
2026-04-25 15:28 33.28380 -112.15434 8115 ft 246 kts 314°
2026-04-25 15:29 33.29638 -112.16770 7809 ft 239 kts 314°
2026-04-25 15:29 33.30861 -112.18070 7521 ft 231 kts 314°
2026-04-25 15:29 33.32041 -112.19322 7252 ft 222 kts 314°
2026-04-25 15:29 33.33176 -112.20528 6964 ft 215 kts 314°
2026-04-25 15:30 33.34277 -112.21699 6673 ft 209 kts 314°
2026-04-25 15:30 33.35352 -112.22842 6383 ft 204 kts 314°
2026-04-25 15:30 33.36398 -112.23962 6092 ft 200 kts 314°
2026-04-25 15:30 33.37433 -112.25066 5828 ft 202 kts 314°
2026-04-25 15:31 33.38549 -112.26161 5514 ft 213 kts 322°
2026-04-25 15:31 33.39862 -112.27005 5257 ft 216 kts 337°
2026-04-25 15:31 33.41318 -112.27321 5012 ft 209 kts
2026-04-25 15:31 33.42694 -112.26891 4646 ft 201 kts 26°
2026-04-25 15:32 33.43734 -112.25898 4322 ft 186 kts 53°
2026-04-25 15:32 33.44245 -112.24528 4057 ft 177 kts 85°
2026-04-25 15:32 33.44233 -112.23094 3858 ft 171 kts 99°
2026-04-25 15:33 33.43886 -112.20343 3596 ft 162 kts 103°
2026-04-25 15:33 33.43674 -112.19008 3425 ft 165 kts 103°
2026-04-25 15:33 33.43529 -112.18108 3293 ft 166 kts 105°
2026-04-25 15:33 33.43177 -112.16340 3083 ft 158 kts 105°
2026-04-25 15:34 33.43044 -112.15510 3006 ft 150 kts 102°
2026-04-25 15:34 33.42924 -112.14295 2802 ft 144 kts 97°
2026-04-25 15:34 33.42865 -112.12733 2611 ft 140 kts 95°
2026-04-25 15:34 33.42858 -112.12337 2545 ft 140 kts 94°
2026-04-25 15:35 33.42884 -112.09691 2143 ft 134 kts 90°
2026-04-25 15:35 33.42886 -112.08581 1992 ft 134 kts 91°
2026-04-25 15:35 33.42875 -112.07470 1884 ft 133 kts 91°
2026-04-25 15:36 33.42876 -112.05235 1609 ft 136 kts 92°
2026-04-25 15:36 33.42875 -112.04110 1418 ft 132 kts 91°
2026-04-25 15:36 33.42889 -112.03033 1224 ft 126 kts 91°
2026-04-25 15:37 33.42887 -112.02019 1125 ft 113 kts 92°
2026-04-25 15:37 33.42884 -112.01300 1132 ft 56 kts 90°
2026-04-25 15:37 33.42887 -112.00980 1135 ft 23 kts 85°
2026-04-25 15:37 33.42920 -112.00808 1135 ft 19 kts 58°